Location: Unspecified
(41.7012°N, 0.0000°E)
Time: 01:35:57
(UTC+00:00)

CSL-04 DEB - Visible Passes

Search period start: 05 April 2026 00:00
Search period end: 15 April 2026 00:00
Orbit: 719 x 1154 km, 98.7° (Epoch: 29 March)

Date Brightness Start Highest point End Pass type
(mag) Time Alt. Az. Time Alt. Az. Time Alt. Az.
5 Apr ? 20:35:52 10° NE 20:37:10 13° ENE 20:37:10 13° ENE visible
5 Apr ? 22:16:14 10° NNE 22:21:00 50° NNE 22:21:00 50° NNE visible
6 Apr ? 00:00:14 10° NNW 00:04:41 19° WNW 00:04:50 19° WNW visible
6 Apr ? 20:48:26 10° NE 20:50:50 17° ENE 20:50:50 17° ENE visible
6 Apr ? 22:29:32 10° N 22:34:40 53° N 22:34:40 53° N visible
7 Apr ? 00:14:07 10° NNW 00:17:46 15° NW 00:18:30 15° WNW visible
7 Apr ? 21:01:15 10° NE 21:04:30 22° ENE 21:04:30 22° ENE visible
7 Apr ? 22:42:55 10° N 22:48:20 52° NNW 22:48:20 52° NNW visible
8 Apr ? 00:28:21 10° NNW 00:30:48 12° NW 00:32:10 11° WNW visible
8 Apr ? 21:14:12 10° NNE 21:18:09 28° ENE 21:18:09 28° ENE visible
8 Apr ? 22:56:19 10° N 23:01:59 46° NW 23:01:59 46° NW visible
9 Apr ? 21:27:15 10° NNE 21:31:48 35° ENE 21:31:48 35° ENE visible
9 Apr ? 23:09:46 10° N 23:15:38 39° WNW 23:15:38 39° WNW visible
10 Apr ? 21:40:23 10° NNE 21:45:27 43° ENE 21:45:27 43° ENE visible
10 Apr ? 23:23:17 10° N 23:29:16 32° WNW 23:29:18 32° WNW visible
11 Apr ? 21:53:34 10° NNE 21:59:05 54° NE 21:59:05 54° NE visible
11 Apr ? 23:36:50 10° N 23:42:25 27° WNW 23:42:56 26° WNW visible
12 Apr ? 20:27:04 10° NE 20:28:54 13° ENE 20:28:54 13° ENE visible
12 Apr ? 22:06:49 10° NNE 22:12:44 65° NE 22:12:44 65° NE visible
12 Apr ? 23:50:29 10° NNW 23:55:30 22° WNW 23:56:34 21° WNW visible
13 Apr ? 20:39:25 10° NE 20:42:32 17° ENE 20:42:32 17° ENE visible
13 Apr ? 22:20:07 10° NNE 22:26:22 72° N 22:26:22 72° N visible
14 Apr ? 00:04:15 10° NNW 00:08:35 18° WNW 00:10:12 16° WNW visible
14 Apr ? 20:52:08 10° NE 20:56:09 22° ENE 20:56:09 22° ENE visible
14 Apr ? 22:33:27 10° N 22:39:59 66° NW 22:39:59 66° NW visible
